GLOBALSTAR M001 1 25162U 98008A 26105.16996000 -.00000080 00000+0 12455-3 0 9994 2 25162 52.0020 174.2624 0001822 168.6880 215.0768 12.38230984281126 GLOBALSTAR M004 1 25163U 98008B 26105.27567785 -.00000095 00000+0 52155-4 0 9999 2 25163 52.0000 212.5355 0003033 229.8052 153.9088 12.63418701299878 GLOBALSTAR M002 1 25164U 98008C 26105.22582147 -.00000074 00000+0 44405-4 0 9990 2 25164 52.0005 202.8874 0000769 346.1070 13.9728 11.61515937219164 GLOBALSTAR M003 1 25165U 98008D 26105.21392648 -.00000182 00000+0 -99322-3 0 9993 2 25165 51.9854 51.9532 0007803 176.0851 322.9642 12.12017355269848 GLOBALSTAR M014 1 25306U 98023A 26105.18757802 -.00000056 00000+0 40568-3 0 9997 2 25306 51.9810 119.8541 0001029 197.0667 240.5448 11.65486013226382 GLOBALSTAR M006 1 25307U 98023B 26105.18564785 -.00000104 00000+0 -57260-3 0 9996 2 25307 51.9929 183.6234 0003001 289.4562 84.2542 11.58177888251828 GLOBALSTAR M015 1 25308U 98023C 26105.24583264 -.00000045 00000+0 65522-3 0 9990 2 25308 51.9831 295.7930 0012034 252.4970 278.4050 11.48861413228792 GLOBALSTAR M008 1 25309U 98023D 26105.19370206 -.00000087 00000+0 74050-4 0 9998 2 25309 51.9987 42.4448 0003126 86.6267 52.9488 12.36082806275199 GLOBALSTAR M023 1 25621U 99004A 26105.29919396 -.00000050 00000+0 30111-3 0 9994 2 25621 52.0104 213.4886 0010327 76.5845 312.3405 12.62523350253894 GLOBALSTAR M040 1 25622U 99004B 26105.22832451 -.00000094 00000+0 54923-4 0 9990 2 25622 51.9916 218.3031 0000402 16.2972 351.6445 12.62032385253393 GLOBALSTAR M036 1 25623U 99004C 26105.18885330 .00000059 00000+0 20681-2 0 9992 2 25623 51.9952 164.2898 0010345 269.5883 124.3356 11.86626938214835 GLOBALSTAR M038 1 25624U 99004D 26105.20084123 -.00000082 00000+0 10384-3 0 9994 2 25624 51.9974 281.7938 0001180 350.7339 181.0327 12.32543721239617 GLOBALSTAR M022 1 25649U 99012A 26104.99796918 -.00000058 00000+0 35207-3 0 9991 2 25649 52.0031 190.4320 0002557 57.1471 114.3874 12.02512074212683 GLOBALSTAR M041 1 25650U 99012B 26105.25020335 -.00000080 00000+0 67230-4 0 9993 2 25650 52.0010 80.4037 0001041 198.5485 161.5314 11.96682879214449 GLOBALSTAR M046 1 25651U 99012C 26105.32398841 -.00000149 00000+0 -66246-3 0 9994 2 25651 52.0033 128.6509 0001927 135.4423 237.2444 12.09421437220223 GLOBALSTAR M037 1 25652U 99012D 26105.07968229 -.00000072 00000+0 17940-3 0 9991 2 25652 52.0027 344.6632 0002515 119.9219 27.9265 12.62464710249404 GLOBALSTAR M045 1 25676U 99019A 26105.13531216 -.00000107 00000+0 -11838-3 0 9993 2 25676 51.9957 164.6412 0000314 173.1867 208.3898 12.27072774230461 GLOBALSTAR M019 1 25677U 99019B 26105.32322593 -.00000048 00000+0 43432-3 0 9999 2 25677 51.9898 315.7382 0001285 165.7597 4.9523 12.13883860221833 GLOBALSTAR M044 1 25678U 99019C 26105.27370765 -.00000073 00000+0 14843-3 0 9990 2 25678 51.9979 305.0255 0005397 259.3485 272.7552 11.90264973207292 GLOBALSTAR M042 1 25679U 99019D 26105.21634264 -.00000065 00000+0 25146-3 0 9991 2 25679 52.0011 278.3060 0002836 185.2655 345.8490 12.22096513222186 GLOBALSTAR M025 1 25770U 99031A 26105.15683678 -.00000054 00000+0 40414-3 0 9996 2 25770 51.9799 179.7337 0002056 268.2686 108.0017 11.22560815515628 GLOBALSTAR M049 1 25771U 99031B 26105.08049651 -.00000075 00000+0 -33599-3 0 9996 2 25771 51.9868 229.8421 0003242 161.6808 198.4106 11.12124128151010 GLOBALSTAR M047 1 25772U 99031C 26105.16075717 -.00000069 00000+0 17892-4 0 9999 2 25772 51.9819 197.7802 0016329 63.8061 296.4422 11.31933242505308 GLOBALSTAR M052 1 25773U 99031D 26104.95791255 -.00000063 00000+0 90854-4 0 9991 2 25773 51.9896 334.5545 0002029 327.2143 45.9056 11.15064423512170 GLOBALSTAR M035 1 25851U 99037A 26105.28472976 -.00000091 00000+0 -10511-2 0 9999 2 25851 51.9923 101.2506 0013480 111.9465 261.6359 11.04541803129641 GLOBALSTAR M032 1 25852U 99037B 26105.15491583 -.00000090 00000+0 -74426-3 0 9996 2 25852 51.9951 265.9108 0012019 316.5824 43.4029 11.19068931168597 GLOBALSTAR M051 1 25853U 99037C 26105.14872215 -.00000071 00000+0 13053-4 0 9999 2 25853 51.9827 32.4436 0000410 92.9369 267.1489 11.42201786166891 GLOBALSTAR M030 1 25854U 99037D 26105.17554517 -.00000015 00000+0 12775-2 0 9991 2 25854 51.9859 179.2806 0003788 213.8207 146.2369 11.55110888184940 GLOBALSTAR M048 1 25872U 99041A 26105.07544523 -.00000052 00000+0 50059-3 0 9990 2 25872 51.9401 339.3272 0013169 351.2016 159.7953 11.33863216159225 GLOBALSTAR M026 1 25873U 99041B 26105.22207963 -.00000123 00000+0 -21619-2 0 9991 2 25873 52.0003 216.1668 0001585 66.7711 299.1466 11.06842216181934 GLOBALSTAR M043 1 25874U 99041C 26105.25223472 -.00000055 00000+0 40484-3 0 9993 2 25874 51.9377 98.5793 0013410 106.1972 266.8426 11.25699676156891 GLOBALSTAR M028 1 25875U 99041D 26105.10464242 -.00000095 00000+0 34183-4 0 9994 2 25875 51.9650 12.7861 0063755 7.7135 352.4693 12.50598622227956 GLOBALSTAR M024 1 25883U 99043A 26105.30095016 -.00000145 00000+0 -28311-2 0 9997 2 25883 52.0027 58.9396 0001219 237.1405 271.9459 11.10170476148412 GLOBALSTAR M027 1 25884U 99043B 26105.26435766 .00000026 00000+0 33919-2 0 9999 2 25884 52.0176 145.5674 0021506 119.8324 240.4610 11.04373730174619 GLOBALSTAR M054 1 25885U 99043C 26105.30047852 -.00000067 00000+0 11340-3 0 9991 2 25885 52.0134 222.0822 0004239 345.7365 37.1623 11.39226460153481 GLOBALSTAR M053 1 25886U 99043D 26105.15039831 -.00000057 00000+0 34345-3 0 9992 2 25886 51.9968 186.2922 0003708 226.5716 144.4814 11.27671367153518 GLOBALSTAR M058 1 25907U 99049A 26105.13258754 -.00000018 00000+0 89512-3 0 9990 2 25907 51.9969 22.8892 0002397 123.5620 236.5444 11.93211618577588 GLOBALSTAR M050 1 25908U 99049B 26105.13452918 -.00000015 00000+0 83047-3 0 9993 2 25908 52.0024 8.0018 0008443 275.4181 230.9753 12.07466181184663 GLOBALSTAR M033 1 25909U 99049C 26105.26706720 .00000021 00000+0 10847-2 0 9994 2 25909 51.9903 218.6069 0014915 164.0403 196.0917 12.20307745572620 GLOBALSTAR M055 1 25910U 99049D 26105.28623952 -.00000096 00000+0 -18835-4 0 9994 2 25910 52.0015 214.5876 0006916 45.0106 315.1305 12.29443033205447 GLOBALSTAR M057 1 25943U 99058A 26105.21899273 -.00000072 00000+0 18586-3 0 9999 2 25943 51.9982 211.0274 0001963 268.4506 91.6119 12.24838374203943 GLOBALSTAR M059 1 25944U 99058B 26105.27914443 -.00000063 00000+0 29234-3 0 9995 2 25944 51.9996 109.9009 0000376 218.0621 155.4731 11.99997117610310 GLOBALSTAR M056 1 25945U 99058C 26105.23724646 -.00000085 00000+0 33373-4 0 9990 2 25945 51.9943 104.2341 0001228 58.2530 315.0806 12.04789174199037 GLOBALSTAR M031 1 25946U 99058D 26105.09390179 -.00000117 00000+0 -27308-3 0 9992 2 25946 51.9992 338.8698 0002125 77.6664 88.9705 12.16051072201278 GLOBALSTAR M039 1 25961U 99062A 26105.23521285 -.00000120 00000+0 -92127-4 0 9990 2 25961 51.9847 68.7159 0002514 305.8115 54.2517 12.62344645218361 GLOBALSTAR M034 1 25962U 99062B 26105.26910124 -.00000058 00000+0 35946-3 0 9992 2 25962 51.9884 306.1425 0013382 250.6248 281.2896 11.79456836174037 GLOBALSTAR M029 1 25963U 99062C 26105.17826392 -.00000073 00000+0 16130-3 0 9997 2 25963 51.9837 357.9543 0002639 4.6011 162.8954 11.99909737205375 GLOBALSTAR M061 1 25964U 99062D 26105.32837395 -.00000084 00000+0 -55060-4 0 9999 2 25964 51.9772 134.0340 0006120 174.0573 198.8017 11.76777160156751 GLOBALSTAR M063 1 26081U 00008A 26105.19036278 -.00000066 00000+0 24687-3 0 9997 2 26081 51.9987 36.1903 0004434 166.8653 341.1311 11.86183737193417 GLOBALSTAR M062 1 26082U 00008B 26105.22040328 -.00000034 00000+0 46135-3 0 9990 2 26082 51.9852 287.5788 0007806 43.7027 128.7501 12.43485181534192 GLOBALSTAR M060 1 26083U 00008C 26105.24707844 -.00000047 00000+0 43552-3 0 9990 2 26083 52.0018 290.2453 0003429 34.3869 136.9009 12.17680748189160 GLOBALSTAR M064 1 26084U 00008D 26105.31198321 -.00000053 00000+0 43093-3 0 9990 2 26084 52.0002 131.1405 0001511 272.5701 87.4958 11.88543705203028 GLOBALSTAR M065 1 31571U 07020A 26105.15273249 -.00000056 00000+0 26752-3 0 9999 2 31571 51.9918 27.1624 0009224 257.7800 241.9482 12.62025778871534 GLOBALSTAR M069 1 31573U 07020C 26105.30384549 -.00000116 00000+0 -21890-3 0 9990 2 31573 52.0032 70.1069 0002075 22.0433 123.4700 12.23469939871106 GLOBALSTAR M072 1 31574U 07020D 26105.16786432 -.00000082 00000+0 24663-4 0 9995 2 31574 51.9930 268.0217 0001582 159.6645 12.1317 11.91657156867465 GLOBALSTAR M071 1 31576U 07020F 26105.05346466 -.00000001 00000+0 88780-3 0 9994 2 31576 52.0041 104.9437 0000899 359.4556 40.2130 12.18268113531739 GLOBALSTAR M067 1 32263U 07048A 26105.06506582 -.00000084 00000+0 10043-3 0 9994 2 32263 51.9724 232.5975 0000741 227.5122 306.6418 12.40687337846953 GLOBALSTAR M070 1 32264U 07048B 26105.23199161 -.00000086 00000+0 96949-4 0 9997 2 32264 51.9752 288.3396 0001039 102.7680 68.2280 12.62333249851818 GLOBALSTAR M066 1 32265U 07048C 26105.14247457 -.00000111 00000+0 -13770-3 0 9990 2 32265 51.9587 238.8962 0004099 265.0294 266.9398 12.30388253852466 GLOBALSTAR M068 1 32266U 07048D 26105.25019381 -.00000067 00000+0 20484-3 0 9995 2 32266 51.9870 101.4476 0001181 78.5690 295.2802 12.62844698855725 GLOBALSTAR M079 1 37188U 10054A 26105.28821817 -.00000093 00000+0 60161-4 0 9998 2 37188 52.0046 300.1453 0000686 117.2845 53.7838 12.62264957714606 GLOBALSTAR M074 1 37189U 10054B 26105.31479065 -.00000089 00000+0 82833-4 0 9992 2 37189 52.0025 299.3399 0000699 89.8845 81.6435 12.62267455715217 GLOBALSTAR M076 1 37190U 10054C 26105.26168118 -.00000075 00000+0 16277-3 0 9995 2 37190 52.0036 299.6984 0000484 94.0225 76.7130 12.62271830714922 GLOBALSTAR M077 1 37191U 10054D 26105.04615610 -.00000051 00000+0 48832-3 0 9992 2 37191 51.9986 339.5586 0003262 63.6189 80.9019 11.67547360713767 GLOBALSTAR M075 1 37192U 10054E 26105.03067422 -.00000082 00000+0 12175-3 0 9999 2 37192 51.9968 342.4914 0000779 87.1025 52.9201 12.62265846713962 GLOBALSTAR M073 1 37193U 10054F 26105.19605725 -.00000115 00000+0 -61891-4 0 9999 2 37193 52.0057 256.0382 0000580 129.2218 41.6990 12.62266363715973 GLOBALSTAR M083 1 37739U 11033A 26105.25588216 -.00000100 00000+0 21832-4 0 9999 2 37739 51.9854 204.1703 0000498 151.9680 232.6700 12.62262505685001 GLOBALSTAR M088 1 37740U 11033B 26105.30669801 -.00000083 00000+0 11628-3 0 9998 2 37740 52.0195 110.2907 0000247 72.4033 301.2756 12.62263083680558 GLOBALSTAR M091 1 37741U 11033C 26105.26776966 -.00000140 00000+0 -20005-3 0 9999 2 37741 51.9990 73.4645 0000395 88.6706 49.4348 12.62262612681331 GLOBALSTAR M085 1 37742U 11033D 26105.18210116 -.00000101 00000+0 16272-4 0 9999 2 37742 52.0149 24.9635 0000638 93.4954 75.3440 12.62270148681838 GLOBALSTAR M081 1 37743U 11033E 26105.20436065 -.00000111 00000+0 -39051-4 0 9998 2 37743 51.9983 27.4041 0000476 73.4643 75.7967 12.62263369681986 GLOBALSTAR M089 1 37744U 11033F 26105.08591309 -.00000086 00000+0 98919-4 0 9996 2 37744 51.9954 341.9392 0000719 61.2356 89.8426 12.62265654682812 GLOBALSTAR M084 1 38040U 11080A 26105.02445169 -.00000108 00000+0 -21842-4 0 9991 2 38040 52.0004 209.5724 0000314 101.5241 70.0297 12.62266320660781 GLOBALSTAR M080 1 38041U 11080B 26105.28069978 -.00000107 00000+0 -20694-4 0 9993 2 38041 52.0054 210.4891 0001006 124.0029 262.2372 12.62268245660941 GLOBALSTAR M082 1 38042U 11080C 26105.13652615 -.00000077 00000+0 15199-3 0 9992 2 38042 52.0065 166.4227 0000656 135.7600 245.0643 12.62269060661634 GLOBALSTAR M092 1 38043U 11080D 26105.14346913 -.00000091 00000+0 69523-4 0 9992 2 38043 52.0081 256.7942 0000699 106.9471 64.9427 12.62266433660080 GLOBALSTAR M090 1 38044U 11080E 26105.08300514 -.00000069 00000+0 19208-3 0 9992 2 38044 52.0107 160.5207 0000347 144.1392 232.5391 12.62267994661742 GLOBALSTAR M086 1 38045U 11080F 26105.18967304 -.00000079 00000+0 13659-3 0 9995 2 38045 51.9879 160.2290 0000756 258.1668 140.1909 12.62285222661701 GLOBALSTAR M097 1 39072U 13005A 26105.21087298 -.00000116 00000+0 -68544-4 0 9991 2 39072 52.0046 75.0351 0000266 94.3643 265.7254 12.62260100608953 GLOBALSTAR M093 1 39073U 13005B 26105.26384225 -.00000111 00000+0 -39845-4 0 9994 2 39073 52.0104 68.1986 0000233 120.6621 239.4269 12.62264445608915 GLOBALSTAR M094 1 39074U 13005C 26105.02638553 -.00000079 00000+0 13555-3 0 9996 2 39074 51.9981 343.1067 0000658 102.6855 257.4085 12.62267450610494 GLOBALSTAR M096 1 39075U 13005D 26105.11884494 -.00000105 00000+0 -80978-5 0 9990 2 39075 52.0095 31.5729 0000526 90.4347 269.6580 12.62264008609422 GLOBALSTAR M078 1 39076U 13005E 26105.17098807 -.00000089 00000+0 80068-4 0 9991 2 39076 51.9851 115.5092 0001119 119.7673 240.3305 12.62276842608051 GLOBALSTAR M095 1 39077U 13005F 26105.27697281 -.00000088 00000+0 89623-4 0 9999 2 39077 52.0061 112.7028 0000545 138.8674 221.2234 12.62267376607926 GLOBALSTAR M087 1 52888U 22064A 26105.13207018 -.00000112 00000+0 -45993-4 0 9990 2 52888 51.9996 254.4220 0000813 129.6857 230.4082 12.62268119183178